When you browse on this site, cookies collect data to enhance your experience and personalize the content and advertising you see.
Visit our Privacy Policy to learn more. By continuing to use the site, you agree to this use of cookies and data.
  • In Belgium
  • List of Countries
  • For 7 days
  • Water Temperature
  • Satellite Maps
  • Weather Map
  • Weather Widgets
  • user-avatar
    Login

    Hourly Weather Pashennyy

    Today, 19 January, Saturday

    Time Temperature Precipitation Wind Pressure Humidity
    00:00 -16°C° 0 mm 1 mps 725 mmHg 97%
    01:00 -16°C° 0 mm 1 mps 725 mmHg 97%
    02:00 -18°C° 0 mm 2 mps 725 mmHg 97%
    03:00 -18°C° 0 mm 2 mps 725 mmHg 97%
    04:00 -18°C° 0 mm 2 mps 724 mmHg 98%
    05:00 -18°C° 0 mm 2 mps 724 mmHg 97%
    06:00 -18°C° 0 mm 2 mps 724 mmHg 97%
    07:00 -17°C° 0 mm 3 mps 723 mmHg 96%
    08:00 -17°C° 0 mm 3 mps 723 mmHg 94%
    09:00 -17°C° 0 mm 3 mps 722 mmHg 91%
    10:00 -17°C° 0 mm 3 mps 722 mmHg 88%
    11:00 -16°C° 0 mm 3 mps 721 mmHg 86%
    12:00 -15°C° 0 mm 3 mps 721 mmHg 84%
    13:00 -15°C° 0 mm 4 mps 721 mmHg 81%
    14:00 -15°C° 0 mm 4 mps 720 mmHg 82%
    15:00 -14°C° 0 mm 3 mps 720 mmHg 83%
    16:00 -15°C° 0 mm 3 mps 719 mmHg 84%
    17:00 -15°C° 0 mm 3 mps 719 mmHg 86%
    18:00 -15°C° 0 mm 2 mps 719 mmHg 88%
    19:00 -18°C° 0 mm 2 mps 718 mmHg 92%
    20:00 -18°C° 0 mm 2 mps 718 mmHg 92%
    21:00 -18°C° 0 mm 2 mps 717 mmHg 91%
    22:00 -18°C° 0 mm 2 mps 717 mmHg 91%
    23:00 -17°C° 0 mm 2 mps 716 mmHg 88%

    Tomorrow, 20 January, Sunday

    Time Temperature Precipitation Wind Pressure Humidity
    00:00 -16°C° 0 mm 2 mps 716 mmHg 86%
    01:00 -16°C° 0 mm 3 mps 716 mmHg 84%
    02:00 -15°C° 0 mm 3 mps 716 mmHg 83%
    03:00 -14°C° 0 mm 3 mps 716 mmHg 82%
    04:00 -12°C° 0 mm 4 mps 716 mmHg 81%
    05:00 -12°C° 0.1 mm 4 mps 716 mmHg 83%
    06:00 -12°C° 0.1 mm 4 mps 716 mmHg 85%
    07:00 -12°C° 0.1 mm 4 mps 717 mmHg 87%
    08:00 -12°C° 0 mm 4 mps 717 mmHg 88%
    09:00 -12°C° 0 mm 3 mps 717 mmHg 89%
    10:00 -12°C° 0 mm 3 mps 717 mmHg 90%
    11:00 -10°C° 0 mm 3 mps 717 mmHg 90%
    12:00 -10°C° 0 mm 3 mps 717 mmHg 90%
    13:00 -10°C° 0 mm 3 mps 717 mmHg 89%
    14:00 -10°C° 0 mm 3 mps 716 mmHg 90%
    15:00 -12°C° 0 mm 3 mps 716 mmHg 90%
    16:00 -12°C° 0 mm 3 mps 715 mmHg 90%
    17:00 -13°C° 0 mm 3 mps 715 mmHg 90%
    18:00 -13°C° 0 mm 2 mps 715 mmHg 89%
    19:00 -14°C° 0 mm 2 mps 714 mmHg 89%
    20:00 -14°C° 0 mm 2 mps 714 mmHg 88%
    21:00 -14°C° 0 mm 2 mps 714 mmHg 88%
    22:00 -15°C° 0 mm 3 mps 713 mmHg 87%
    23:00 -15°C° 0 mm 3 mps 713 mmHg 87%

    Day after tomorrow, 21 January, Monday

    Time Temperature Precipitation Wind Pressure Humidity
    00:00 -14°C° 0 mm 3 mps 713 mmHg 86%
    01:00 -14°C° 0 mm 3 mps 713 mmHg 86%
    02:00 -13°C° 0 mm 3 mps 713 mmHg 87%
    03:00 -14°C° 0 mm 4 mps 713 mmHg 88%
    04:00 -12°C° 0 mm 4 mps 713 mmHg 89%
    05:00 -12°C° 0.1 mm 3 mps 714 mmHg 91%
    06:00 -12°C° 0.1 mm 3 mps 714 mmHg 92%
    07:00 -12°C° 0.1 mm 3 mps 714 mmHg 93%
    08:00 -10°C° 0.2 mm 3 mps 714 mmHg 92%
    09:00 -10°C° 0.2 mm 3 mps 715 mmHg 92%
    10:00 -9°C° 0.2 mm 3 mps 715 mmHg 92%
    11:00 -9°C° 0.2 mm 3 mps 715 mmHg 90%
    12:00 -9°C° 0.2 mm 3 mps 716 mmHg 89%
    13:00 -8°C° 0.2 mm 3 mps 716 mmHg 87%
    14:00 -8°C° 0.1 mm 2 mps 716 mmHg 89%
    15:00 -8°C° 0.1 mm 2 mps 716 mmHg 91%
    16:00 -8°C° 0.1 mm 1 mps 716 mmHg 92%
    17:00 -9°C° 0 mm 1 mps 716 mmHg 93%
    18:00 -11°C° 0 mm 1 mps 716 mmHg 94%
    19:00 -12°C° 0 mm 0 mps 716 mmHg 95%
    20:00 -12°C° 0 mm 0 mps 716 mmHg 95%
    21:00 -12°C° 0 mm 0 mps 716 mmHg 96%
    22:00 -12°C° 0 mm 0 mps 716 mmHg 96%
    23:00 -11°C° 0 mm 0 mps 716 mmHg 96%

    22 January, Tuesday

    Time Temperature Precipitation Wind Pressure Humidity
    00:00 -11°C° 0 mm 0 mps 716 mmHg 96%
    01:00 -11°C° 0 mm 1 mps 716 mmHg 97%
    02:00 -11°C° 0.1 mm 1 mps 716 mmHg 97%
    03:00 -10°C° 0.1 mm 1 mps 716 mmHg 97%
    04:00 -10°C° 0.1 mm 1 mps 716 mmHg 97%
    05:00 -10°C° 0.2 mm 1 mps 716 mmHg 97%
    06:00 -10°C° 0.2 mm 1 mps 716 mmHg 97%
    07:00 -10°C° 0.2 mm 1 mps 716 mmHg 97%
    08:00 -10°C° 0.2 mm 2 mps 716 mmHg 96%
    09:00 -10°C° 0.2 mm 2 mps 716 mmHg 95%
    10:00 -10°C° 0.2 mm 3 mps 716 mmHg 94%
    11:00 -10°C° 0.1 mm 3 mps 716 mmHg 93%
    12:00 -9°C° 0.1 mm 3 mps 716 mmHg 92%
    13:00 -9°C° 0.1 mm 3 mps 716 mmHg 90%
    14:00 -8°C° 0.2 mm 3 mps 716 mmHg 91%
    15:00 -8°C° 0.2 mm 3 mps 716 mmHg 91%
    16:00 -7°C° 0.2 mm 3 mps 717 mmHg 91%
    17:00 -8°C° 0.1 mm 4 mps 717 mmHg 90%
    18:00 -8°C° 0.1 mm 4 mps 718 mmHg 88%
    19:00 -7°C° 0.1 mm 5 mps 718 mmHg 87%
    20:00 -9°C° 0 mm 4 mps 719 mmHg 88%
    21:00 -10°C° 0 mm 4 mps 719 mmHg 88%
    22:00 -10°C° 0 mm 3 mps 720 mmHg 89%
    23:00 -12°C° 0 mm 3 mps 720 mmHg 90%

    23 January, Wednesday

    Time Temperature Precipitation Wind Pressure Humidity
    00:00 -12°C° 0 mm 3 mps 721 mmHg 91%
    01:00 -12°C° 0 mm 3 mps 722 mmHg 92%
    02:00 -13°C° 0 mm 3 mps 722 mmHg 93%
    03:00 -13°C° 0 mm 2 mps 723 mmHg 93%
    04:00 -14°C° 0 mm 2 mps 723 mmHg 93%
    05:00 -16°C° 0 mm 2 mps 724 mmHg 95%
    06:00 -15°C° 0 mm 1 mps 724 mmHg 97%
    07:00 -16°C° 0 mm 1 mps 724 mmHg 98%
    08:00 -16°C° 0 mm 1 mps 725 mmHg 98%
    09:00 -16°C° 0 mm 1 mps 725 mmHg 98%
    10:00 -16°C° 0 mm 1 mps 726 mmHg 98%
    11:00 -14°C° 0 mm 1 mps 726 mmHg 96%
    12:00 -13°C° 0 mm 1 mps 726 mmHg 95%
    13:00 -14°C° 0 mm 2 mps 726 mmHg 93%
    14:00 -12°C° 0 mm 1 mps 726 mmHg 95%
    15:00 -13°C° 0 mm 1 mps 725 mmHg 96%
    16:00 -13°C° 0 mm 1 mps 725 mmHg 97%
    17:00 -14°C° 0 mm 1 mps 725 mmHg 97%
    18:00 -15°C° 0 mm 1 mps 725 mmHg 97%
    19:00 -18°C° 0 mm 2 mps 725 mmHg 98%
    20:00 -18°C° 0 mm 2 mps 725 mmHg 98%
    21:00 -18°C° 0 mm 2 mps 725 mmHg 97%
    22:00 -18°C° 0 mm 2 mps 725 mmHg 97%
    23:00 -19°C° 0 mm 2 mps 725 mmHg 95%

    24 January, Thursday

    Time Temperature Precipitation Wind Pressure Humidity
    00:00 -19°C° 0 mm 2 mps 724 mmHg 94%
    01:00 -19°C° 0 mm 2 mps 724 mmHg 93%
    02:00 -19°C° 0 mm 2 mps 724 mmHg 92%
    03:00 -20°C° 0 mm 2 mps 724 mmHg 91%
    04:00 -20°C° 0 mm 2 mps 724 mmHg 89%
    05:00 -20°C° 0 mm 2 mps 723 mmHg 89%
    06:00 -20°C° 0 mm 2 mps 723 mmHg 89%
    07:00 -20°C° 0 mm 2 mps 723 mmHg 88%
    08:00 -19°C° 0 mm 2 mps 723 mmHg 87%
    09:00 -18°C° 0 mm 2 mps 723 mmHg 86%
    10:00 -18°C° 0 mm 2 mps 723 mmHg 85%
    11:00 -16°C° 0 mm 2 mps 723 mmHg 83%
    12:00 -15°C° 0 mm 2 mps 723 mmHg 81%
    13:00 -13°C° 0 mm 2 mps 723 mmHg 79%
    14:00 -14°C° 0 mm 2 mps 722 mmHg 82%
    15:00 -13°C° 0 mm 1 mps 722 mmHg 85%
    16:00 -14°C° 0 mm 1 mps 722 mmHg 89%
    17:00 -15°C° 0 mm 1 mps 722 mmHg 90%
    18:00 -16°C° 0 mm 1 mps 722 mmHg 92%
    19:00 -17°C° 0 mm 1 mps 722 mmHg 93%
    20:00 -17°C° 0 mm 1 mps 722 mmHg 94%
    21:00 -18°C° 0 mm 1 mps 722 mmHg 95%
    22:00 -18°C° 0 mm 1 mps 723 mmHg 96%
    23:00 -18°C° 0 mm 1 mps 723 mmHg 95%
    Show more